Hourly Data Report for January 13, 2018

All times are specified in Local Standard Time (LST). Add 1 hour to adjust for Daylight Saving Time where and when it is observed.

OTTAWA INTL A
ONTARIO

45°19'00.000" N
75°40'00.000" W
114.90 m
6106001
71628
YOW

Download Data

Hourly Data (January 2018)
Hourly Data Report for January 13, 2018
Temp Definition
°C
Dew Point Temp Definition
°C
Rel Hum Definition
%
Wind Dir Definition
10's deg

Wind Spd Definition
km/h
Visibility Definition
km
Stn Press Definition
kPa
Hmdx Definition


Wind Chill Definition


Weather Definition


TIME
00:00 -12.6 -15.0 82 33 33 1.2 100.15   -23 Snow
01:00 -13.0 -15.2 84 34 29 1.2 100.07   -23 Snow
02:00 -13.3 -15.9 81 33 29 1.6 100.12   -24 Snow
03:00 -13.9 -16.4 81 33 29 1.2 100.09   -24 Snow
04:00 -13.9 -16.5 80 33 27 2.0 100.14   -24 Snow
05:00 -15.2 -18.1 79 32 35 3.2 100.19   -27 Snow
06:00 -15.3 -19.3 72 33 27 16.1 100.15   -26 LegendNANA
07:00 -16.0 -20.2 70 32 37 24.1 100.23   -28 Mostly Cloudy
08:00 -16.7 -21.2 68 32 37 24.1 100.50   -29 Blowing Snow
09:00 -17.3 -22.4 65 33 38 24.1 100.56   -30 Blowing Snow
10:00 -17.1 -22.4 64 33 36 24.1 100.72   -30 Blowing Snow
11:00 -17.0 -22.6 63 33 32 24.1 100.82   -29 Blowing Snow
12:00 -16.7 -22.3 62 31 30 24.1 100.92   -28 Blowing Snow
13:00 -16.1 -22.1 61 33 28 24.1 100.92   -27 Blowing Snow
14:00 -15.9 -22.4 58 31 28 24.1 100.99   -27 Blowing Snow
15:00 -15.5 -22.4 56 32 28 24.1 101.07   -26 Blowing Snow
16:00 -15.7 -22.8 55 33 25 24.1 101.18   -26 Mainly Clear
17:00 -16.3 -22.9 57 33 19 24.1 101.33   -26 LegendNANA
18:00 -17.1 -22.8 62 31 11 24.1 101.51   -24 LegendNANA
19:00 -17.5 -22.3 67 30 13 24.1 101.63   -25 Mainly Clear
20:00 -17.4 -22.7 64 31 21 24.1 101.71   -27 LegendNANA
21:00 -18.2 -23.1 66 31 19 24.1 101.81   -28 LegendNANA
22:00 -18.4 -23.5 65 33 18 24.1 101.90   -28 Mostly Cloudy
23:00 -19.5 -24.2 67 31 21 24.1 101.95   -30 LegendNANA

Notes on Data Quality.

Legend

  • E = Estimated
  • M = Missing
  • NA = Not Available
Date modified: